Tracking 25648 objects as of 17-May-2022
HD Live streaming from Space Station
objects crossing your sky now

COSMOS 2353

Track COSMOS 2353 now!
10-day predictions
COSMOS 2353 is classified as:


NORAD ID: 25364
Int'l Code: 1998-036B
Perigee: 1,307.4 km
Apogee: 1,876.2 km
Inclination: 82.6 °
Period: 117.9 minutes
Semi major axis: 7962 km
RCS: 0.979 m2 (medium)
Launch date: June 15, 1998
Source: Commonwealth of Independent States (former USSR) (CIS)
Launch site: PLESETSK MISSILE AND SPACE COMPLEX (PKMTR)

Satellites have a single simultaneous earth-space and space-earth channel.
aabbcc
Your satellite tracking list
Your tracking list is empty




NASA's NSSDC Master Catalog

Two Line Element Set (TLE):
1 25364U 98036B   22136.70544674  .00000017  00000-0  37847-4 0  9998
2 25364  82.5861 144.7240 0357150  95.1520 269.0404 12.21812044 66762
Source of the keplerian elements: AFSPC